7 * 24
多渠道服务支持
STARLINK-37242(NORAD编号68728)是SpaceX星链(Starlink)低轨互联网星座的卫星成员之一,属于Starlink大规模星座部署计划的组成部分。星链计划旨在构建覆盖全球的天基互联网通信系统,为偏远地区、海洋、航空等场景提供网络服务。该卫星运行于近地轨道,作为V2.0 Mini批次卫星,尺寸约2.8米×1.4米,重量约800公斤,支持星间链路与手机直连功能,依托Ku、Ka频段提供通信服务,参与填补全球未覆盖网络区域的服务空白。
美国
(US)
| 数据来源 | 国际轨道数据 |
| 星历时间: | 2026-05-24T12:00:02+0800 1天前 查看轨道信息 |
| 半长轴: | 6797.255km |
| 偏心率: | 0.0001572 |
| 轨道倾角: | 97.285° |
| 近地点辐角 | 91.531° |
| 升交点赤经 | 7.770° |
| 平近点角 | 185.742° |
| 近地点: | 418.049km |
| 远地点: | 420.187km |
| 周期: | 92.952分钟 |
| 每日圈数: | 15.491821 |